Location: Agendoh
(31.0664°N, 8.9343°W)
Time: 19:03:18
(UTC+00:00)

Hubble Space Telescope - Pass Details

Date: 06 December 2021
Orbit: 534 x 538 km, 28.5° (Epoch: 16 January)

Event Time Altitude Azimuth Distance (km) Brightness Sun altitude
Exits shadow 04:46:32 13° 144° (SE) 1,601 3.6 -32.2°
Drops below altitude 10° 04:47:04 10° 140° (SE) 1,770 3.9 -32.1°
Sets 04:49:32 0° 128° (SE) 2,658 5.2 -31.6°
